This demonstration page uses our WeatherBlox Daily Observations layout. Learn more.

Left ArrowRight Arrow

39.08367, -84.50855

Hourly Observations for May 25, 2016

Temp ( °F °C ) Dew Point ( °F °C ) Humidity (%) Winds ( mph kmh ) Pressure ( in mb ) Visibility ( mi km ) Precip ( " mm )
12:53 am 00:53 Clear 57 13.9 55 12.8 93 93 Calm 30.09 1019 10 16 0.00 0.00
1:53 am 01:53 Clear 56 13.3 54 12.2 93 93 Calm 30.09 1019 10 16 0.00 0.00
2:53 am 02:53 Clear 55 12.8 55 12.8 100 100 Calm 30.09 1019 9 14 0.00 0.00
3:53 am 03:53 Mostly Clear 55 12.8 55 12.8 100 100 Calm 30.11 1020 8 13 0.00 0.00
4:53 am 04:53 Mostly Cloudy 55 12.8 55 12.8 100 100 Calm 30.10 1019 8 13 0.00 0.00
5:53 am 05:53 Cloudy 57 13.9 56 13.3 96 96 Calm 30.11 1020 9 14 0.00 0.00
6:53 am 06:53 Mostly Cloudy 58 14.4 57 13.9 97 97 Calm 30.11 1020 10 16 0.00 0.00
7:53 am 07:53 Mostly Cloudy 60 15.6 58 14.4 93 93 Calm 30.12 1020 10 16 0.00 0.00
8:53 am 08:53 Mostly Cloudy 65 18.3 58 14.4 78 78 Calm 30.13 1020 10 16 0.00 0.00
9:53 am 09:53 Mostly Cloudy 68 20 57 13.9 68 68 Calm 30.13 1020 10 16 0.00 0.03
10:53 am 10:53 Cloudy with Light Rain 65 18.3 61 16.1 87 87 Calm 30.15 1021 9 14 0.01 0.25
11:53 am 11:53 Mostly Cloudy 70 21.1 64 17.8 82 82 Calm 30.13 1020 10 16 0.01 0.25
12:31 pm 12:31 Partly Cloudy 73 22.8 62 16.7 69 69 S 9 15 30.09 1019 10 16 0.00 0.00
12:53 pm 12:53 Sunny 73 22.8 61 16.1 66 66 S 9 15 30.13 1020 10 16 0.00 0.00
1:53 pm 13:53 Cloudy 72 22.2 62 16.7 71 71 S 9 15 30.12 1020 10 16 0.00 0.00
2:53 pm 14:53 Sunny 77 25 64 17.8 64 64 S 10 17 30.10 1019 10 16 0.00 0.00
3:53 pm 15:53 Sunny 78 25.6 65 18.3 64 64 SSE 8 13 30.08 1019 10 16 0.00 0.00
4:53 pm 16:53 Sunny 80 26.7 65 18.3 60 60 SSW 5 7 30.06 1018 10 16 0.00 0.00
5:53 pm 17:53 Mostly Sunny 81 27.2 67 19.4 62 62 S 7 11 30.05 1018 10 16 0.00 0.00
6:53 pm 18:53 Mostly Sunny 80 26.7 65 18.3 60 60 S 9 15 30.02 1017 10 16 0.00 0.00
7:53 pm 19:53 Sunny 77 25 64 17.8 64 64 SSW 12 19 30.03 1017 10 16 0.00 0.00
8:53 pm 20:53 Clear 73 22.8 65 18.3 76 76 S 7 11 30.04 1017 10 16 0.00 0.00
9:53 pm 21:53 Partly Cloudy 72 22.2 65 18.3 79 79 S 6 9 30.05 1018 10 16 0.00 0.00
10:53 pm 22:53 Clear 71 21.7 64 17.8 79 79 Calm 30.07 1018 10 16 0.00 0.00
11:53 pm 23:53 Clear 67 19.4 65 18.3 93 93 Calm 30.06 1018 10 16 0.00 0.00

Powered by AerisWeather